Regional Weather Roundup
Issued by NWS

Home | Current Version | Previous Version | Text Only | Print | Product List | Glossary On
Versions: 1 2 3 4 5 6 7 8 9 10 11 12 13 14 15 16 17 18 19 20 21 22 23 24 25 26 27 28 29 30 31 32 33 34 35 36 37 38 39 40 41 42 43 44 45 46 47 48 49 50
000
ASUS43 KLSX 251959
RWRMO

WEATHER SUMMARY FOR MISSOURI
NATIONAL WEATHER SERVICE SPRINGFIELD MO
300 PM CDT SAT APR 25 2015

NOTE: "FAIR" INDICATES FEW OR NO CLOUDS BELOW 12,000 FEET WITH NO
       SIGNIFICANT WEATHER AND/OR OBSTRUCTIONS TO VISIBILITY.
       CURRENT SKY AND/OR WEATHER CONDITIONS ARE NOT AVAILABLE FOR
       CHILLICOTHE AND FARMINGTON.

MOZ001>031-035>038-043-044-053-054-252100-
...NORTHERN AND WESTERN MISSOURI...

CITY           SKY/WX    TMP DP  RH WIND       PRES   REMARKS
KANSAS CTY INT CLOUDY    56  54  93 N13G23    29.58R
KANSAS C DTWN  CLOUDY    61  55  81 N14       29.56R
LEE`S SUMMIT   CLOUDY    60  57  89 N15       29.55R
ST JOSEPH      CLOUDY    53  49  86 N18       29.61R
CHILLICOTHE      N/A     54  51  90 N10G17    29.58R
KIRKSVILLE     CLOUDY    54  53  97 NE17      29.57R FOG

$$
MOZ066>068-077>081-088>096-101>105-252100-
...SOUTHWEST MISSOURI...

CITY           SKY/WX    TMP DP  RH WIND       PRES   REMARKS
SPRINGFIELD    PTSUNNY   72  52  49 W25G36    29.54R
JOPLIN         CLOUDY    74  53  48 W20G29    29.56R

$$
MOZ032>034-039>042-045>050-055>058-069>072-252100-
...CENTRAL MISSOURI...

CITY           SKY/WX    TMP DP  RH WIND       PRES   REMARKS
COLUMBIA       CLOUDY    69  56  62 W20G26    29.49R
JEFFERSON CITY PTSUNNY   72  54  53 SW23G32   29.48R
ROLLA          CLOUDY    70  52  52 W18       29.48R
SEDALIA        CLOUDY    67  57  70 NW14G23   29.52R
WHITEMAN AFB   CLOUDY    63  59  88 W8        29.51R
OSAGE BEACH    CLOUDY    66  52  59 W9G16     29.52R

$$
MOZ051-052-059>065-252100-
...EAST CENTRAL MISSOURI...

CITY           SKY/WX    TMP DP  RH WIND       PRES   REMARKS
ST LOUIS INTL  LGT RAIN  66  61  84 N5        29.49R
SPIRIT OF STL  CLOUDY    66  60  81 CALM      29.48R
ST CHARLES     CLOUDY    60  57  89 NE12      29.50R

$$
MOZ072>076-082>087-097>100-106>115-252100-
...SOUTH CENTRAL AND SOUTHEAST MISSOURI...

CITY           SKY/WX    TMP DP  RH WIND       PRES   REMARKS
CAPE GIRARDEAU PTSUNNY   77  62  59 SW20      29.47F
FARMINGTON     PTSUNNY   75  54  46 W12G18    29.49F
POPLAR BLUFF   PTSUNNY   78  60  53 S22G29    29.45F
WEST PLAINS    MOSUNNY   79  49  34 W17G26    29.52R

$$


USA.gov is the U.S. government's official web portal to all federal, state and local government web resources and services.